Flag for Cote d'Ivoire (Ivory Coast) Weather past 2 weeks in Abidjan, Cote d'Ivoire (Ivory Coast)

Now
82 °F

Passing clouds.


Feels Like: 94 °F
Forecast: 80 / 89 °F
Wind: 8 mph from Southwest

Location: Abidjan Airport

Current Time: Mar 30, 2015 at 12:36:38 AM

Latest Report: Mar 30, 2015 at 12:00 AM


Visibility: N/A

Pressure: 29.89 "Hg

Humidity: 94%

Dew point: 81 °F

Location of AbidjanLocation

Historic Weather in Abidjan — Graph

°F

Abidjan temperature yesterday

Maximum temperature yesterday: 90 °F (at 11:30 AM)
Minimum temperature yesterday: 75 °F (at 4:30 AM)
Average temperature yesterday: 83 °F

Past Weeks' High & Low Weather Summary

 TemperatureHumidityPressure
High91 °F (Mar 23, 1:00 PM)100% (Mar 18, 6:30 AM)29.98 "Hg (Mar 18, 6:30 AM)
Low72 °F (Mar 27, 2:00 AM)55% (Mar 17, 12:00 PM)29.68 "Hg (Mar 20, 4:30 PM)
Average83 °F83%29.83 "Hg
* Reported Mar 14 11:00 PM — Mar 29 11:30 PM, Abidjan, Weather by CustomWeather, © 2015

Note: Actual official high and low records may vary slightly from our data, if they occured in-between our weather recording intervals... More about our weather records

Advertising

Abidjan weather history for previous 24 hours

 ConditionsComfort  
Time TempWeatherWind HumidityBarometerVisibility
11:30 PM
Sun, Mar 29
82 °FPassing clouds.7 mph94%29.89 "HgN/A
11:00 PM82 °FPassing clouds.7 mph94%29.89 "HgN/A
10:30 PM82 °FPassing clouds.7 mph94%29.89 "HgN/A
10:00 PM82 °FPassing clouds.6 mph94%29.89 "HgN/A
9:30 PM82 °FPassing clouds.6 mph94%29.89 "HgN/A
9:00 PM82 °FPassing clouds.7 mph94%29.89 "HgN/A
8:30 PM82 °FPassing clouds.7 mph89%29.86 "HgN/A
8:00 PM82 °FPassing clouds.9 mph94%29.86 "HgN/A
7:30 PM82 °FPassing clouds.9 mph89%29.83 "HgN/A
7:00 PM82 °FPassing clouds.8 mph89%29.83 "HgN/A
6:30 PM84 °FPassing clouds.10 mph84%29.83 "HgN/A
6:00 PM84 °FPassing clouds.10 mph84%29.80 "HgN/A
5:30 PM84 °FPassing clouds.14 mph84%29.80 "HgN/A
5:00 PM86 °FScattered clouds.16 mph75%29.80 "HgN/A
4:30 PM86 °FScattered clouds.17 mph79%29.80 "HgN/A
4:00 PM86 °FScattered clouds.17 mph75%29.80 "HgN/A
3:30 PM88 °FScattered clouds.17 mph70%29.80 "HgN/A
3:00 PM90 °FScattered clouds.17 mph67%29.80 "HgN/A
2:30 PM90 °FScattered clouds.17 mph67%29.80 "HgN/A
2:00 PM90 °FScattered clouds.17 mph67%29.83 "HgN/A
1:30 PM90 °FScattered clouds.16 mph67%29.83 "HgN/A
1:00 PM88 °FScattered clouds.17 mph70%29.86 "HgN/A
12:30 PM90 °FBroken clouds.13 mph67%29.86 "HgN/A
12:00 PM88 °FBroken clouds.14 mph70%29.89 "HgN/A
11:30 AM90 °FBroken clouds.13 mph71%29.89 "HgN/A
11:00 AM88 °FScattered clouds.12 mph70%29.89 "HgN/A
10:30 AM86 °FScattered clouds.12 mph79%29.89 "HgN/A
10:00 AM86 °FScattered clouds.13 mph79%29.89 "HgN/A
9:30 AM86 °FBroken clouds.12 mph79%29.89 "HgN/A
9:00 AM82 °FBroken clouds.2 mph89%29.89 "HgN/A
8:30 AM81 °FBroken clouds.3 mph89%29.89 "HgN/A
8:00 AM81 °FBroken clouds.3 mph89%29.86 "HgN/A
7:30 AM79 °FBroken clouds.1 mph100%29.86 "HgN/A
7:00 AM77 °FBroken clouds.3 mph94%29.86 "HgN/A
6:30 AM75 °FScattered clouds.1 mph100%29.83 "HgN/A
6:00 AM75 °FPassing clouds.3 mph100%29.83 "Hg5 mi
5:30 AM75 °FThunderstorms. Passing clouds.1 mph94%29.83 "Hg5 mi
5:00 AM75 °FThunderstorms. Passing clouds.5 mph94%29.83 "Hg5 mi
4:30 AM75 °FThunderstorms. Passing clouds.1 mph100%29.83 "Hg4 mi
4:00 AM77 °FThunderstorms. Passing clouds.3 mph94%29.83 "Hg4 mi
3:30 AM79 °FStrong thunderstorms. Passing clouds.7 mph94%29.86 "Hg1 mi
3:04 AM79 °FThunderstorms. Passing clouds.13 mph100%29.86 "Hg2 mi
3:00 AM82 °FThunderstorms. Passing clouds.6 mph89%29.86 "Hg5 mi
2:30 AM82 °FThunderstorms. Passing clouds.5 mph89%29.86 "Hg5 mi
2:00 AM82 °FThunderstorms. Passing clouds.6 mph89%29.86 "Hg5 mi
1:30 AM82 °FPassing clouds.5 mph89%29.89 "Hg5 mi
1:00 AM82 °FPassing clouds.6 mph89%29.89 "Hg5 mi
12:30 AM82 °FPassing clouds.6 mph89%29.92 "Hg5 mi
12:00 AMN/APassing clouds.8 mphN/A29.92 "HgN/A
Weather by CustomWeather, © 2015

See weather overviewHow to use our weather pages